Location: New Canada
(47.1017°N, 68.5042°W)
Time: 06:53:46
(UTC+00:00)

AO-85 - Pass Details

Date: 08 April 2023
Orbit: 516 x 753 km, 64.8° (Epoch: 04 January)

Event Time Altitude Azimuth Distance (km) Brightness Sun altitude
Rises 09:05:20 0° 178° (S) 2,834 ? -9.7°
Reaches altitude 10° 09:08:07 10° 161° (SSE) 1,892 ? -9.3°
Maximum altitude 09:11:09 20° 115° (ESE) 1,346 ? -8.8°
Drops below altitude 10° 09:14:06 10° 68° (ENE) 1,819 ? -8.3°
Sets 09:16:42 0° 51° (NE) 2,687 ? -7.9°
